TimeCDT,TemperatureF,Dew PointF,Humidity,Sea Level PressureIn,VisibilityMPH,Wind Direction,Wind SpeedMPH,Gust SpeedMPH,PrecipitationIn,Events,Conditions,WindDirDegrees,DateUTC
12:15 AM,70.7,70.0,98,30.24,7.0,Calm,Calm,-,N/A,,Mostly Cloudy,0,2013-07-18 05:15:00
12:35 AM,70.3,70.0,99,30.24,5.0,Calm,Calm,-,N/A,,Scattered Clouds,0,2013-07-18 05:35:00
12:55 AM,70.0,69.8,99,30.24,5.0,Calm,Calm,-,N/A,,Mostly Cloudy,0,2013-07-18 05:55:00
1:15 AM,70.2,69.8,99,30.25,5.0,Calm,Calm,-,N/A,,Overcast,0,2013-07-18 06:15:00
1:35 AM,70.5,70.0,98,30.26,5.0,Calm,Calm,-,N/A,,Overcast,0,2013-07-18 06:35:00
1:55 AM,70.0,69.4,98,30.26,7.0,Calm,Calm,-,N/A,,Overcast,0,2013-07-18 06:55:00
2:15 AM,69.8,69.1,98,30.24,7.0,WNW,3.5,-,N/A,,Mostly Cloudy,290,2013-07-18 07:15:00
2:35 AM,69.8,69.1,98,30.24,7.0,Calm,Calm,-,N/A,,Mostly Cloudy,0,2013-07-18 07:35:00
2:55 AM,69.6,68.2,95,30.24,10.0,Calm,Calm,-,N/A,,Scattered Clouds,0,2013-07-18 07:55:00
3:15 AM,69.1,68.0,96,30.24,10.0,West,3.5,-,N/A,,Clear,260,2013-07-18 08:15:00
3:35 AM,68.9,67.6,96,30.23,10.0,Calm,Calm,-,N/A,,Clear,0,2013-07-18 08:35:00
3:55 AM,68.4,68.0,99,30.23,7.0,Calm,Calm,-,N/A,,Scattered Clouds,0,2013-07-18 08:55:00
4:15 AM,68.5,68.2,99,30.22,5.0,Calm,Calm,-,N/A,,Mostly Cloudy,0,2013-07-18 09:15:00
4:35 AM,68.0,67.5,98,30.23,2.5,Calm,Calm,-,N/A,,Overcast,0,2013-07-18 09:35:00
4:55 AM,68.0,67.6,99,30.23,5.0,WNW,3.5,-,N/A,,Overcast,300,2013-07-18 09:55:00
5:15 AM,68.0,68.0,100,30.23,0.8,Calm,Calm,-,N/A,,Overcast,0,2013-07-18 10:15:00
5:35 AM,68.2,68.0,99,30.24,5.0,Calm,Calm,-,N/A,,Overcast,0,2013-07-18 10:35:00
5:55 AM,68.2,67.6,98,30.24,7.0,Calm,Calm,-,N/A,,Overcast,0,2013-07-18 10:55:00
6:15 AM,68.4,67.8,98,30.24,5.0,Calm,Calm,-,N/A,,Overcast,0,2013-07-18 11:15:00
6:35 AM,68.4,68.0,99,30.24,4.0,Calm,Calm,-,N/A,,Overcast,0,2013-07-18 11:35:00
6:55 AM,68.2,68.0,99,30.24,3.0,Calm,Calm,-,N/A,,Overcast,0,2013-07-18 11:55:00
7:15 AM,68.5,68.0,98,30.24,5.0,Calm,Calm,-,N/A,,Overcast,0,2013-07-18 12:15:00
7:35 AM,68.7,68.0,98,30.25,5.0,Calm,Calm,-,N/A,,Overcast,0,2013-07-18 12:35:00
7:55 AM,69.4,68.2,96,30.25,7.0,Calm,Calm,-,N/A,,Overcast,0,2013-07-18 12:55:00
8:15 AM,69.8,68.2,95,30.25,7.0,Calm,Calm,-,N/A,,Overcast,0,2013-07-18 13:15:00
8:35 AM,70.2,68.4,94,30.25,7.0,Calm,Calm,-,N/A,,Overcast,0,2013-07-18 13:35:00
8:55 AM,70.9,68.7,93,30.24,10.0,Calm,Calm,-,N/A,,Overcast,0,2013-07-18 13:55:00
9:15 AM,72.5,68.9,88,30.24,10.0,Calm,Calm,-,N/A,,Mostly Cloudy,0,2013-07-18 14:15:00
9:35 AM,74.7,70.5,87,30.24,10.0,Calm,Calm,-,N/A,,Scattered Clouds,0,2013-07-18 14:35:00
9:55 AM,75.4,70.7,85,30.24,10.0,Calm,Calm,-,N/A,,Clear,0,2013-07-18 14:55:00
10:15 AM,77.9,71.8,81,30.23,10.0,Calm,Calm,-,N/A,,Clear,0,2013-07-18 15:15:00
10:35 AM,80.1,72.3,77,30.23,10.0,Calm,Calm,-,N/A,,Clear,0,2013-07-18 15:35:00
10:55 AM,81.0,72.1,74,30.23,10.0,Calm,Calm,-,N/A,,Clear,0,2013-07-18 15:55:00
11:15 AM,82.2,72.5,72,30.22,10.0,Calm,Calm,-,N/A,,Clear,0,2013-07-18 16:15:00
11:35 AM,83.8,72.7,69,30.22,10.0,Calm,Calm,-,N/A,,Clear,0,2013-07-18 16:35:00
11:55 AM,84.0,72.5,68,30.21,10.0,Calm,Calm,-,N/A,,Scattered Clouds,0,2013-07-18 16:55:00
12:15 PM,85.1,73.6,68,30.20,10.0,NE,3.5,-,N/A,,Scattered Clouds,50,2013-07-18 17:15:00
12:35 PM,87.4,73.0,62,30.20,10.0,SSE,4.6,-,N/A,,Mostly Cloudy,160,2013-07-18 17:35:00
12:55 PM,87.8,73.0,61,30.18,10.0,SE,3.5,-,N/A,Thunderstorm,Scattered Clouds,130,2013-07-18 17:55:00
1:15 PM,88.0,72.7,60,30.17,10.0,South,5.8,-,N/A,Thunderstorm,Scattered Clouds,170,2013-07-18 18:15:00
1:35 PM,88.2,72.1,59,30.17,10.0,SSW,3.5,-,N/A,Thunderstorm,Thunderstorm,200,2013-07-18 18:35:00
1:55 PM,86.2,69.8,58,30.18,10.0,NNE,17.3,23.0,N/A,Thunderstorm,Thunderstorm,20,2013-07-18 18:55:00
2:15 PM,81.0,68.2,65,30.18,10.0,ENE,9.2,-,N/A,Thunderstorm,Mostly Cloudy,60,2013-07-18 19:15:00
2:35 PM,81.1,68.5,65,30.16,10.0,Calm,Calm,-,N/A,Thunderstorm,Scattered Clouds,0,2013-07-18 19:35:00
2:55 PM,80.8,69.6,69,30.15,10.0,North,4.6,-,N/A,Thunderstorm,Clear,10,2013-07-18 19:55:00
3:15 PM,79.7,68.9,69,30.16,10.0,North,4.6,-,N/A,,Clear,360,2013-07-18 20:15:00
3:35 PM,79.7,68.9,69,30.14,10.0,NNE,4.6,-,N/A,,Clear,20,2013-07-18 20:35:00
3:55 PM,79.7,68.9,69,30.13,10.0,Calm,Calm,-,N/A,,Clear,0,2013-07-18 20:55:00
4:15 PM,80.1,69.4,70,30.14,10.0,Calm,Calm,-,N/A,,Clear,0,2013-07-18 21:15:00
5:15 PM,81.3,70.3,69,30.13,10.0,Calm,Calm,-,N/A,,Clear,0,2013-07-18 22:15:00
5:35 PM,81.7,70.7,69,30.11,10.0,NNW,3.5,-,N/A,,Clear,340,2013-07-18 22:35:00
5:55 PM,81.5,71.2,71,30.12,10.0,Calm,Calm,-,N/A,,Clear,0,2013-07-18 22:55:00
6:15 PM,81.0,71.4,73,30.11,10.0,Calm,Calm,-,N/A,,Clear,0,2013-07-18 23:15:00
6:35 PM,80.4,72.1,76,30.11,10.0,Calm,Calm,-,N/A,,Clear,0,2013-07-18 23:35:00
6:55 PM,79.7,72.3,78,30.11,10.0,Calm,Calm,-,N/A,,Clear,0,2013-07-18 23:55:00
7:15 PM,78.8,72.9,82,30.11,10.0,Calm,Calm,-,N/A,,Clear,0,2013-07-19 00:15:00
7:35 PM,77.4,72.1,84,30.12,10.0,Calm,Calm,-,N/A,,Scattered Clouds,0,2013-07-19 00:35:00
7:55 PM,76.8,72.0,85,30.13,10.0,Calm,Calm,-,N/A,,Mostly Cloudy,0,2013-07-19 00:55:00
8:15 PM,77.0,71.6,83,30.13,10.0,Calm,Calm,-,N/A,,Scattered Clouds,0,2013-07-19 01:15:00
8:35 PM,75.9,71.4,86,30.14,10.0,Calm,Calm,-,N/A,Thunderstorm,Thunderstorm,0,2013-07-19 01:35:00
8:55 PM,74.3,72.5,94,30.14,5.0,North,4.6,-,0.04,Rain-Thunderstorm,Light Thunderstorms and Rain,350,2013-07-19 01:55:00
9:15 PM,73.6,71.8,94,30.15,7.0,WSW,5.8,-,N/A,,Scattered Clouds,240,2013-07-19 02:15:00
9:35 PM,73.0,71.8,96,30.15,7.0,Calm,Calm,-,N/A,,Clear,0,2013-07-19 02:35:00
9:55 PM,72.7,71.8,97,30.16,7.0,Calm,Calm,-,N/A,,Clear,0,2013-07-19 02:55:00
10:15 PM,72.5,72.0,98,30.17,5.0,Calm,Calm,-,N/A,,Mostly Cloudy,0,2013-07-19 03:15:00
10:35 PM,72.1,71.6,98,30.16,5.0,Calm,Calm,-,N/A,,Scattered Clouds,0,2013-07-19 03:35:00
10:55 PM,72.1,71.6,98,30.16,7.0,Calm,Calm,-,N/A,,Clear,0,2013-07-19 03:55:00
11:15 PM,71.6,71.1,98,30.16,5.0,Calm,Calm,-,N/A,,Clear,0,2013-07-19 04:15:00
11:35 PM,71.1,70.7,99,30.15,3.0,Calm,Calm,-,N/A,,Scattered Clouds,0,2013-07-19 04:35:00
11:55 PM,71.2,70.7,98,30.14,5.0,Calm,Calm,-,N/A,,Scattered Clouds,0,2013-07-19 04:55:00